Location: Bussy-Saint-Georges
(48.8410°N, 2.7017°E)
Time: 15:35:13
(UTC+00:00)

DMSP B5D2-2 - Pass Details

Date: 18 October 2021
Orbit: 789 x 806 km, 98.3° (Epoch: 29 November)

Event Time Altitude Azimuth Distance (km) Brightness Sun altitude
Rises 18:46:28 0° 15° (NNE) 3,326 7.2 -19.3°
Reaches altitude 10° 18:48:50 10° 17° (NNE) 2,388 6.5 -19.7°
Maximum altitude 18:54:07 75° 103° (ESE) 829 3.9 -20.5°
Drops below altitude 10° 18:59:20 10° 189° (S) 2,359 6.5 -21.4°
Sets 19:01:39 0° 191° (S) 3,282 7.3 -21.8°
